Hovedside
METAR-TAF:

METAR-TAF

Lufthavner :

Ventspils, Latvia

breddegrad: 57-21-28N, lengdegrad: 021-32-39E, høyde over havet: 6 m

Gjeldene værobservasjon

Denne rapporten ble laget for 20 minutter siden, klokken 07:20 UTC
Vind 6 kt fra Øst-sørøst
Temperatur -1°C
Luftfuktighet 93%
Trykk 1029 hPa
Sikt 10 km eller mer
Brutte skyer i en høyde av 4700 ft

METAR: EVVA 240720Z AUTO 11006KT 9999 BKN047 M01/M02 Q1029

Tid: 10:40 (07:40 UTC)


TAF: fraværende

Værobservasjoner og værvarsel for over 4000 flyplasser (METAR- og TAF-rapporter).

Tilgjengelige stasjoner er representert av de røde og gule prikkene på kartet.

Hold musepekeren over prikken for å se navnet på stasjonen.

Klikk så for å se værobservasjoner og -varsler.

For å forandre kartet kan du klikke på den grønne knappen med svart kryss for å zoome inn, på den grønne knappen med strek for å zoome ut, eller på de grønne pilene for å se tilstøtende kart.


METAR-TAF: